Wind_Speed
12 11 12 13 14 14 14 13 11 14 14 14 13 10 12 14 14 11 8 8 6 6 5 3 3 2 1 4 7 7 10 2 3 3 1 2 2 4 4 3 2 5 8 16
14 12 12 13 14 14 13 12 11 14 14 13 14 12 13 13 12 11 9 8 7 6 5 3 2 1 2 4 8 8 10 4 3 1 3 4 5 9 15 9 8 11 7 11
15 14 12 13 13 13 13 11 13 15 14 10 10 13 13 14 12 9 8 7 7 6 4 3 2 1 4 9 10 11 10 4 5 7 9 15 20 19 18 15 12 16 27 30
17 15 14 13 14 13 13 12 11 15 15 12 12 13 13 13 12 9 10 8 5 5 4 2 2 3 6 9 10 8 8 9 14 14 15 17 21 21 20 22 23 17 24 25
19 18 16 14 13 12 12 12 9 14 14 14 14 13 13 12 11 10 9 7 6 4 2 1 3 6 7 5 7 11 17 11 16 20 12 14 26 27 10 2 10 18 21 26
22 20 18 15 13 13 13 12 9 11 13 14 14 14 13 12 10 8 7 6 5 2 1 5 8 7 5 7 11 14 15 10 11 10 12 19 20 4 11 20 24 20 21 26
23 21 19 17 15 13 13 14 12 12 13 13 13 12 10 9 8 7 7 5 3 3 6 9 10 4 4 3 9 10 14 14 11 10 15 2 14 23 28 24 13 18 25 29
24 22 21 19 17 15 14 14 15 14 12 13 12 12 11 10 10 8 7 5 5 6 8 10 7 5 2 9 6 13 11 11 11 5 7 18 27 10 14 17 27 22 25 23
25 23 22 20 19 17 16 15 14 15 13 12 12 11 11 11 11 10 9 8 8 9 11 10 3 3 8 4 10 11 14 15 17 12 6 5 16 22 25 24 25 14 18 29
26 24 23 21 20 18 18 17 16 15 14 12 10 12 11 11 13 11 9 9 11 11 11 11 8 8 10 6 7 9 16 19 20 18 12 18 23 13 12 11 16 28 33 39
27 26 24 22 21 20 19 19 18 16 15 14 13 13 14 14 14 14 12 10 12 12 11 8 8 8 10 11 12 18 25 17 21 12 9 8 6 21 28 37 46 34 37 39
27 26 24 23 22 21 20 19 19 18 17 14 16 18 16 18 19 17 16 15 14 9 9 7 8 13 17 19 21 21 19 17 19 16 23 28 36 39 38 40 38 34 36 37
28 27 25 24 23 22 21 21 20 20 19 19 21 19 18 20 21 20 19 18 18 18 18 19 21 25 26 23 23 25 33 30 30 32 30 31 31 31 29 33 33 37 39 43
30 29 28 27 25 24 23 23 22 22 21 22 21 16 21 24 22 21 21 21 20 21 23 25 28 27 25 28 32 38 32 31 29 31 30 30 31 30 32 36 34 42 43 41
31 30 29 27 26 25 24 23 23 23 22 16 17 22 27 25 23 21 26 25 23 23 25 27 29 33 32 39 38 35 18 26 22 32 30 32 32 32 30 35 41 40 36 31
30 28 27 27 27 26 26 26 27 26 25 26 28 27 28 27 25 23 28 28 24 26 32 34 31 28 27 29 26 20 29 24 27 30 31 31 34 36 39 39 37 33 29 33
32 30 29 27 27 27 28 29 26 26 25 24 25 26 31 27 25 26 28 28 30 29 31 36 33 27 26 31 32 37 32 28 25 22 29 34 34 36 35 35 29 31 33 33
31 27 27 27 28 28 30 29 27 25 22 23 18 21 25 25 19 15 19 24 28 34 34 34 30 28 25 30 30 30 24 27 24 29 34 33 30 32 33 31 33 38 38 38
31 30 29 29 31 32 33 29 28 27 26 26 29 32 25 23 21 21 26 25 25 31 32 30 27 25 22 18 23 24 31 28 31 30 28 30 31 31 31 34 37 41 44 48
37 33 34 31 34 31 28 29 28 33 35 36 33 38 31 27 25 20 19 20 23 18 20 19 22 27 26 29 30 28 25 27 24 25 28 32 33 34 37 40 42 46 50 51
37 41 36 38 34 35 34 27 20 21 21 24 31 31 29 30 18 18 11 10 9 8 14 15 13 23 23 24 21 23 23 25 27 29 30 32 34 38 41 43 48 48 46 43
38 37 32 32 27 16 13 15 13 11 15 12 12 15 16 11 9 10 11 10 9 9 10 9 10 19 20 20 20 21 23 25 26 27 29 32 35 39 46 47 45 43 42 40
29 22 17 12 12 10 11 13 11 10 7 5 7 9 15 13 15 13 11 9 10 10 7 7 14 19 17 16 17 20 23 25 27 29 32 38 43 44 42 41 40 39 40 41
13 8 4 7 5 5 10 11 8 12 12 13 13 11 10 14 12 12 7 10 8 6 9 18 17 14 11 13 18 23 26 27 32 36 41 43 41 39 38 37 38 39 40 40
10 6 5 10 10 11 6 4 8 12 15 15 14 13 13 13 10 9 10 6 7 8 10 10 9 10 16 22 25 27 31 34 39 41 39 39 39 38 37 36 37 38 38 39
7 8 7 4 7 10 10 8 8 8 12 15 14 14 8 13 8 9 9 6 8 12 13 12 11 19 25 28 32 34 37 39 37 39 39 36 36 37 37 37 36 37 37 38
11 14 15 14 13 7 8 10 10 10 12 14 12 8 10 8 8 9 11 18 19 19 15 13 22 28 33 35 35 33 32 36 36 35 34 35 33 34 35 36 35 35 35 36
Wind_Direction
156 146 155 163 163 163 162 158 166 170 171 170 181 186 171 166 169 176 177 174 183 175 165 138 125 133 49 1 3 356 1 41 359 325 311 195 236 264 282 345 245 268 265 278
171 159 156 162 164 165 170 176 180 177 177 187 187 180 175 172 171 177 177 173 175 170 157 127 140 117 322 327 337 337 345 324 345 205 242 276 254 281 297 293 272 259 256 269
184 176 164 165 162 168 173 178 177 181 187 192 198 186 173 171 167 170 172 173 160 159 146 143 148 286 306 312 316 320 327 300 282 261 283 292 290 291 288 277 260 262 260 282
192 188 183 177 173 170 177 181 189 181 188 183 178 180 177 178 165 163 160 159 163 168 162 202 258 308 314 311 310 309 311 297 296 291 302 295 297 299 294 282 285 260 303 301
199 195 196 195 193 189 188 188 187 188 181 181 176 182 179 178 174 170 173 173 186 213 239 274 317 321 315 302 303 302 303 295 299 303 304 309 308 312 305 303 305 295 307 310
206 203 203 202 202 202 198 195 181 183 183 184 187 189 187 184 185 179 190 193 201 253 328 329 332 325 310 296 294 293 293 293 296 288 302 316 305 176 312 306 304 302 305 313
211 210 208 207 204 201 202 201 191 194 194 194 196 197 197 205 203 203 199 211 239 272 307 326 332 339 310 288 311 300 296 290 283 273 294 275 295 306 301 295 295 302 304 302
212 211 210 211 210 204 202 197 190 194 203 210 211 215 219 215 216 219 223 234 261 294 312 323 331 335 282 306 301 318 307 287 280 261 242 283 303 326 308 298 304 298 314 311
211 212 212 210 213 209 206 206 203 200 205 214 219 225 226 223 225 232 237 246 270 289 298 311 291 301 309 293 309 314 310 298 277 269 275 267 297 302 297 291 295 302 296 307
211 211 213 214 216 215 211 211 213 214 215 220 221 231 236 236 236 244 252 262 272 280 287 290 285 284 283 282 288 302 308 298 282 271 266 283 307 293 296 293 299 300 313 311
215 216 215 214 217 219 220 219 222 225 227 231 232 235 239 241 243 251 257 261 259 271 273 277 278 257 267 275 290 301 296 289 278 271 262 288 296 304 310 306 307 304 309 309
216 219 220 219 220 222 222 224 228 233 233 237 240 240 242 242 245 247 248 250 259 262 265 266 270 273 273 281 278 300 287 289 279 270 270 284 301 297 297 300 305 311 313 312
216 218 223 224 224 226 228 227 228 234 239 245 245 245 245 246 245 244 247 251 263 269 270 269 274 273 279 277 286 298 299 294 281 283 291 305 303 290 295 299 300 311 310 312
217 220 223 226 226 227 228 229 231 233 238 242 245 245 243 245 246 247 247 253 262 267 270 276 275 274 278 279 286 296 298 291 292 295 307 306 304 308 296 304 310 310 311 314
219 219 221 224 225 226 228 231 233 235 233 243 248 250 249 252 257 260 256 256 269 278 278 274 274 277 279 287 291 284 295 299 289 305 303 297 294 291 305 311 310 309 311 318
222 221 219 222 225 227 229 231 234 235 239 245 254 261 259 259 260 263 257 260 267 281 282 279 275 273 281 286 269 261 294 288 297 291 289 286 294 304 306 306 311 315 321 321
219 224 226 225 227 229 229 235 240 241 245 252 262 268 265 264 259 257 255 263 275 273 274 273 271 273 280 270 261 289 296 293 290 289 290 293 297 304 308 315 317 320 324 323
213 218 223 225 226 228 230 233 237 239 243 248 245 251 257 267 264 260 263 271 268 268 270 271 270 277 276 273 277 284 285 294 281 292 295 298 300 307 315 315 314 318 319 318
214 217 223 228 230 233 234 232 237 242 242 246 252 255 259 254 261 280 271 261 262 265 262 265 272 273 259 261 271 268 285 274 281 292 294 297 304 311 314 314 315 313 313 314
209 217 217 222 234 238 236 227 233 232 245 236 242 257 250 263 278 241 262 264 257 245 256 264 257 253 258 266 273 279 278 284 294 296 301 308 310 311 311 313 313 312 315 316
207 215 216 225 225 225 225 226 221 218 227 243 242 239 255 263 249 265 258 246 229 241 252 238 246 258 272 276 274 277 286 296 299 301 304 306 308 310 311 311 314 316 317 318
202 201 209 199 204 199 198 195 202 211 217 221 214 226 236 246 283 258 242 245 262 241 247 224 251 263 263 263 270 283 291 294 297 302 305 307 307 308 311 315 317 317 317 318
180 164 159 177 177 182 189 194 177 195 200 182 189 247 279 269 242 236 240 230 230 238 229 236 264 278 271 275 290 295 296 298 299 303 303 305 308 312 317 317 315 315 316 318
193 210 200 201 191 197 226 231 235 242 256 263 266 260 243 241 220 222 228 230 230 229 236 262 272 279 294 299 292 289 291 294 302 305 307 310 314 314 315 314 315 317 319 321
192 182 214 231 227 231 248 255 252 256 259 258 253 250 245 239 223 216 218 217 219 229 244 259 270 284 292 289 289 293 299 301 304 307 310 311 312 313 316 316 317 317 318 320
182 194 211 224 228 236 240 242 244 241 235 238 237 233 220 220 218 213 211 214 228 258 262 266 286 292 290 292 295 299 303 305 306 309 309 311 313 314 315 317 317 316 318 318
215 231 241 261 270 259 258 261 261 257 245 223 214 222 213 219 224 213 221 240 261 262 262 276 283 286 291 296 302 303 303 304 305 306 308 310 311 312 315 317 317 317 320 320
Height
3108 3110 3112 3114 3115 3118 3121 3124 3127 3129 3132 3136 3136 3138 3140 3143 3145 3147 3149 3151 3152 3154 3155 3156 3157 3159 3160 3160 3159 3158 3157 3156 3156 3156 3156 3156 3156 3156 3156 3156 3157 3155 3154 3143
3108 3110 3112 3114 3115 3118 3121 3124 3127 3129 3132 3134 3135 3137 3139 3141 3144 3146 3148 3150 3152 3153 3154 3157 3157 3158 3159 3158 3158 3157 3157 3155 3155 3155 3157 3155 3153 3153 3152 3152 3152 3151 3152 3140
3107 3110 3111 3114 3116 3118 3121 3124 3126 3129 3131 3133 3135 3136 3138 3141 3144 3146 3148 3150 3152 3153 3154 3155 3156 3157 3157 3157 3156 3155 3154 3154 3154 3154 3153 3152 3149 3148 3147 3148 3147 3144 3139 3135
3106 3109 3111 3114 3116 3118 3121 3123 3125 3127 3129 3132 3134 3137 3138 3141 3143 3146 3148 3150 3151 3153 3154 3155 3155 3156 3156 3154 3153 3152 3152 3151 3150 3149 3148 3146 3142 3141 3141 3140 3138 3138 3134 3131
3104 3107 3110 3112 3115 3117 3120 3123 3124 3126 3129 3131 3134 3136 3138 3141 3143 3145 3147 3149 3150 3151 3152 3153 3154 3154 3153 3152 3151 3150 3148 3147 3146 3143 3143 3142 3136 3134 3132 3133 3133 3130 3128 3124
3102 3105 3108 3111 3113 3116 3118 3121 3123 3126 3128 3130 3133 3135 3138 3140 3142 3145 3146 3147 3149 3150 3151 3151 3151 3151 3150 3150 3149 3147 3146 3144 3143 3140 3139 3138 3131 3130 3131 3130 3128 3126 3123 3121
3098 3102 3106 3109 3111 3114 3117 3119 3122 3125 3127 3130 3132 3135 3137 3139 3141 3143 3144 3146 3147 3149 3148 3149 3148 3147 3147 3147 3146 3145 3143 3142 3141 3138 3138 3138 3128 3127 3125 3123 3123 3122 3118 3114
3095 3099 3103 3106 3109 3112 3115 3117 3120 3122 3125 3128 3131 3133 3135 3137 3139 3141 3142 3144 3145 3145 3146 3146 3145 3145 3145 3144 3143 3142 3141 3140 3138 3136 3135 3131 3122 3122 3120 3118 3117 3116 3112 3109
3092 3096 3100 3104 3107 3109 3112 3115 3118 3121 3124 3126 3129 3131 3133 3135 3137 3139 3140 3141 3142 3143 3143 3143 3143 3143 3142 3142 3141 3140 3139 3138 3137 3134 3133 3127 3120 3119 3116 3113 3110 3109 3106 3103
3088 3092 3097 3101 3104 3107 3110 3112 3116 3119 3121 3124 3126 3128 3130 3132 3134 3135 3137 3138 3139 3140 3140 3140 3141 3141 3141 3139 3138 3137 3136 3134 3131 3130 3128 3119 3115 3113 3112 3111 3110 3102 3099 3095
3084 3089 3093 3097 3100 3103 3107 3110 3113 3116 3119 3122 3124 3125 3127 3129 3131 3132 3134 3136 3135 3136 3136 3137 3137 3136 3136 3135 3135 3134 3132 3130 3126 3124 3123 3116 3113 3111 3110 3105 3099 3095 3091 3086
3079 3085 3089 3093 3096 3100 3103 3107 3110 3113 3117 3119 3120 3121 3123 3125 3126 3128 3129 3131 3131 3132 3133 3134 3133 3133 3131 3130 3128 3129 3124 3124 3123 3120 3114 3113 3110 3105 3101 3097 3092 3086 3084 3078
3075 3080 3084 3088 3092 3096 3099 3103 3106 3109 3112 3115 3116 3118 3119 3120 3122 3123 3125 3126 3126 3127 3128 3128 3127 3126 3124 3123 3121 3120 3117 3116 3113 3111 3108 3106 3103 3099 3094 3090 3086 3081 3076 3072
3070 3074 3079 3083 3087 3091 3094 3098 3101 3104 3107 3109 3111 3111 3113 3115 3116 3117 3119 3120 3121 3122 3122 3121 3120 3120 3116 3114 3115 3111 3112 3108 3104 3100 3100 3095 3093 3090 3086 3082 3078 3074 3069 3066
3064 3069 3074 3078 3082 3086 3089 3092 3095 3098 3104 3102 3104 3106 3108 3109 3110 3112 3113 3115 3115 3115 3115 3113 3113 3112 3110 3105 3104 3101 3102 3101 3097 3093 3092 3088 3085 3081 3078 3075 3071 3066 3062 3060
3059 3063 3068 3072 3076 3080 3083 3086 3089 3092 3094 3097 3098 3099 3100 3103 3105 3105 3107 3108 3109 3109 3106 3104 3103 3104 3104 3096 3093 3094 3096 3094 3091 3087 3083 3082 3078 3076 3073 3069 3065 3060 3056 3052
3052 3058 3062 3066 3070 3074 3077 3081 3084 3087 3090 3092 3091 3089 3089 3094 3097 3099 3100 3101 3101 3100 3097 3093 3095 3096 3096 3090 3086 3088 3088 3085 3082 3080 3078 3076 3072 3069 3066 3062 3058 3054 3050 3046
3046 3052 3056 3060 3063 3067 3070 3073 3077 3080 3084 3085 3083 3081 3084 3086 3088 3091 3093 3092 3092 3089 3087 3086 3087 3087 3085 3080 3079 3079 3078 3077 3076 3073 3070 3068 3065 3062 3059 3055 3051 3047 3043 3038
3039 3045 3050 3053 3056 3058 3061 3069 3072 3075 3078 3075 3072 3072 3076 3078 3082 3085 3084 3082 3082 3082 3078 3079 3080 3077 3075 3074 3073 3072 3071 3070 3068 3066 3064 3061 3058 3056 3052 3049 3045 3040 3035 3030
3033 3039 3042 3043 3046 3052 3058 3062 3064 3063 3063 3063 3060 3063 3068 3073 3075 3075 3078 3074 3074 3071 3070 3071 3068 3067 3068 3066 3066 3064 3063 3063 3062 3060 3058 3055 3052 3049 3045 3041 3037 3032 3026 3020
3023 3026 3031 3036 3041 3046 3048 3052 3054 3054 3052 3051 3053 3056 3060 3064 3068 3068 3069 3066 3065 3063 3064 3065 3059 3058 3060 3058 3058 3059 3058 3057 3055 3053 3051 3047 3044 3040 3036 3032 3028 3021 3015 3009
3014 3018 3025 3028 3032 3036 3039 3040 3044 3042 3044 3045 3049 3053 3055 3058 3061 3062 3061 3060 3061 3058 3056 3057 3052 3054 3053 3053 3054 3053 3052 3051 3049 3047 3044 3041 3037 3033 3027 3022 3016 3011 3005 3000
3010 3014 3018 3020 3024 3027 3030 3030 3032 3036 3039 3043 3046 3049 3052 3054 3056 3057 3058 3056 3055 3053 3052 3049 3049 3047 3047 3049 3049 3049 3046 3044 3041 3039 3036 3032 3027 3022 3017 3012 3006 3001 2996 2991
3010 3011 3015 3019 3020 3022 3024 3028 3032 3035 3037 3040 3043 3045 3048 3047 3049 3050 3050 3049 3048 3047 3045 3044 3044 3043 3044 3045 3044 3043 3041 3038 3035 3031 3027 3022 3017 3012 3006 3002 2997 2991 2986 2982
3011 3014 3016 3017 3020 3021 3023 3025 3029 3032 3033 3035 3037 3040 3044 3044 3044 3043 3043 3043 3041 3041 3039 3038 3039 3040 3040 3039 3037 3036 3034 3031 3027 3023 3017 3014 3009 3004 2998 2993 2989 2983 2978 2974
3010 3012 3014 3017 3019 3020 3022 3024 3026 3028 3030 3032 3034 3035 3037 3037 3037 3037 3036 3037 3035 3035 3035 3035 3035 3035 3032 3031 3029 3027 3024 3021 3017 3014 3009 3004 2999 2994 2990 2986 2981 2976 2971 2966
3007 3009 3011 3014 3017 3019 3021 3023 3024 3025 3028 3029 3030 3031 3031 3031 3030 3030 3030 3029 3030 3029 3029 3029 3029 3026 3024 3023 3021 3018 3015 3012 3008 3005 3001 2996 2991 2987 2983 2978 2974 2968 2963 2958